Kbely Air Base

Jump to: basic info | weather | frequencies | runways | comments

Related pages: nearby airports | nearby navaids | notams | map

Basic information (top)

Codes: LKKB
Location: lon 50.121399, lat 14.543600, elev 939 ft / 286 m msl
Status: medium_airport

Weather (top)

Current conditions (rec'd 2014/08/30 22:00Z):

LKKB 302200Z VRB02KT CAVOK 14/13 Q1017

Airport forecast (rec'd 2014/08/30 12:00Z):

TAF LKKB 301100Z 3012/3112 21006KT CAVOK 
      TEMPO 3012/3018 8000 SHRA SCT030TCU PROB40 3012/3018 26014KT TS SCT025CB 
      BECMG 3105/3107 8000 RA BR BKN025

Frequencies (top)

Verify before use: may be inaccurate or out of date.

APP: 124.675 MHz (APP)
GCA: 123.3 MHz (PRECISION)
TWR: 120.875 MHz (TWR)

Runways (top)

06/24: 6,562 x 148 ft (2,000 x 45 m) — paved — lighted

Latest comments (top)

No comments yet for Kbely Air Base

More... (top)

See also NOTAMs and nearby airports and navaids, or visit the Kbely Air Base page at the main OurAirports website..